Weather Roundup
Issued by NWS

Home | Current Version | Previous Version | Graphics & Text | Print | Product List | Glossary Off
Versions: 1 2 3 4 5 6 7 8 9 10 11 12 13 14 15 16 17 18 19 20 21 22 23 24 25 26 27 28 29 30 31 32 33 34 35 36 37 38 39 40 41 42 43 44 45 46 47 48 49 50

000
NZUS93 KARX 220759
HRRWXR

CURRENT HOURLY OBSERVATIONS ACROSS
MUCH OF THE UPPER MISSISSIPPI VALLEY
NATIONAL WEATHER SERVICE LA CROSSE WI
300 AM CDT FRI MAY 22 2015


...SOUTHEAST MINNESOTA...


CITY           SKY/WX    TMP DP  RH WIND       PRES   REMARKS
ROCHESTER      FAIR      49  32  52 NW8       30.12S
ROCHESTER/MAYO FAIR      53  34  49 W3        30.12S
WINONA         CLEAR     46  41  81 CALM      30.10R
AUSTIN         CLEAR     46  39  76 CALM      30.12S
ALBERT LEA     CLEAR     46  37  71 CALM      30.13R
DODGE CENTER   CLEAR     52  34  50 NW5       30.12S
PRESTON        CLEAR     49  32  52 NW8       30.12R
OWATONNA       CLEAR     45  37  76 CALM      30.13S
FARIBAULT      CLEAR     43  39  87 CALM      30.13S
$$

...ELSEWHERE IN MINNESOTA...


CITY           SKY/WX    TMP DP  RH WIND       PRES   REMARKS
MINNEAPOLIS    CLEAR     54  34  46 NW3       30.13R
INTNL FALLS    CLEAR     32  30  92 CALM      30.13R
DULUTH         CLEAR     41  32  70 CALM      30.12R
RED WING       CLEAR     43  39  87 CALM      30.11R
REDWOOD FALLS  CLEAR     50  36  58 CALM      30.14S
MANKATO        CLEAR     50  34  53 N7        30.13S
WORTHINGTON    CLEAR     46  28  49 W3        30.17S
FAIRMONT       CLEAR     48  30  49 NW5       30.14R
$$

...SOUTHWEST WISCONSIN...


CITY           SKY/WX    TMP DP  RH WIND       PRES   REMARKS
LA CROSSE      CLEAR     49  42  77 E3        30.09R
PRAIRIE DU CHI CLEAR     45  40  81 CALM      30.09R
BOSCOBEL       CLEAR     42  38  85 CALM      30.10R
LONE ROCK      NOT AVBL
PLATTEVILLE    CLEAR     51  38  61 CALM      30.08R
FORT MC COY    CLEAR     37  36  96 CALM      30.10S
VIROQUA        FAIR      51  37  57 CALM      30.09R
WIS DELLS      CLEAR     47  37  68 CALM      30.09R
$$

...ELSEWHERE IN WISCONSIN...


CITY           SKY/WX    TMP DP  RH WIND       PRES   REMARKS
MILWAUKEE      CLEAR     45  32  60 N5        30.09R
MADISON        CLEAR     48  33  56 SE5       30.09R
GREEN BAY      CLEAR     39  34  82 W5        30.12R
EAU CLAIRE     NOT AVBL
BLACK RVR FLS  FAIR      33  33 100 CALM      30.10R
MEDFORD        CLEAR     38  35  89 CALM      30.10R
WAUSAU         CLEAR     39  36  89 E3        30.11R
WIS RAPIDS     CLEAR     39  36  89 CALM      30.12R
MARSHFIELD     CLEAR     44  34  67 CALM      30.11R
RICE LAKE      CLEAR     42  38  84 CALM      30.13R
$$

...NORTHEAST IOWA...


CITY           SKY/WX    TMP DP  RH WIND       PRES   REMARKS
DECORAH        CLEAR     50  37  62 NW5       30.09S
MASON CITY     CLEAR     45  36  70 W7        30.14R
CHARLES CITY   CLEAR     46  37  71 NW5       30.12S
OELWEIN        CLEAR     46  39  76 NW6       30.11R
$$

...ELSEWHERE IN IOWA...


CITY           SKY/WX    TMP DP  RH WIND       PRES   REMARKS
DES MOINES     CLEAR     54  42  64 W9        30.16R
IOWA CITY      CLEAR     50  37  61 W3        30.12R
FORT DODGE     CLEAR     43  37  81 W3        30.16S
$$

...NORTHERN ILLINOIS...


CITY           SKY/WX    TMP DP  RH WIND       PRES   REMARKS
CHICAGO-OHARE  CLEAR     55  41  59 NW3       30.05R
CHICAGO-MIDWAY CLEAR     58  43  57 N8        30.05R
MOLINE         CLEAR     49  43  80 W3        30.09R
ROCKFORD       CLEAR     51  41  68 N3        30.08R
PEORIA         CLEAR     55  46  71 W5        30.10R
$$

NOTE: "FAIR" INDICATES FEW OR NO CLOUDS BELOW 12,000 FEET WITH NO
SIGNIFICANT WEATHER AND/OR OBSTRUCTIONS TO VISIBILITY. WIND
SPEEDS ARE IN MILES-PER-HOUR.



USA.gov is the U.S. government's official web portal to all federal, state and local government web resources and services.